This is the latest recevied weather packets stored in our database for station/object N6DZK. If no packets are shown the sender has not sent any weather packets the latest 10 day(s).
| Time | Temp. | Humidity | Pressure | Rain* | Wind** | Luminosity | Snow |
|---|---|---|---|---|---|---|---|
| 1777760970 | 21.11° C | 58% | 1011.9 hPa | 0 mm | - | 737 W/m² | - |
| 1777760667 | 21.11° C | 58% | 1012.2 hPa | 0 mm | - | 803 W/m² | - |
| 1777760362 | 21.11° C | 57% | 1012.3 hPa | 0 mm | - | 622 W/m² | - |
| 1777760059 | 21.67° C | 58% | 1012.5 hPa | 0 mm | - | 636 W/m² | - |
| 1777759756 | 21.11° C | 57% | 1012.5 hPa | 0 mm | - | 734 W/m² | - |
| 1777759452 | 20.56° C | 56% | 1012.8 hPa | 0 mm | - | 803 W/m² | - |
| 1777759149 | 21.11° C | 56% | 1013 hPa | 0 mm | - | 876 W/m² | - |
| 1777758846 | 21.11° C | 57% | 1013 hPa | 0 mm | - | 888 W/m² | - |
| 1777758543 | 21.11° C | 59% | 1013 hPa | 0 mm | - | 885 W/m² | - |
| 1777758239 | 20.56° C | 58% | 1012.9 hPa | 0 mm | - | 737 W/m² | - |
| 1777757937 | 20.56° C | 58% | 1013.1 hPa | 0 mm | - | 691 W/m² | - |
| 1777757633 | 21.11° C | 56% | 1013.1 hPa | 0 mm | - | 751 W/m² | - |
| 1777757333 | 21.67° C | 55% | 1013.1 hPa | 0 mm | - | 778 W/m² | - |
| 1777757031 | 21.11° C | 57% | 1013.1 hPa | 0 mm | - | 922 W/m² | - |
| 1777756727 | 21.11° C | 58% | 1013 hPa | 0 mm | - | 631 W/m² | - |
| 1777756423 | 20.56° C | 60% | 1013 hPa | 0 mm | - | 829 W/m² | - |
| 1777756121 | 20.56° C | 60% | 1013.1 hPa | 0 mm | - | 878 W/m² | - |
| 1777755818 | 20° C | 60% | 1013.3 hPa | 0 mm | - | 939 W/m² | - |
| 1777755515 | 20° C | 59% | 1013.2 hPa | 0 mm | - | 923 W/m² | - |
| 1777755210 | 20° C | 62% | 1013.4 hPa | 0 mm | - | 963 W/m² | - |
| 1777754908 | 19.44° C | 63% | 1013.5 hPa | 0 mm | - | 865 W/m² | - |
| 1777754605 | 20° C | 61% | 1013.7 hPa | 0 mm | - | 707 W/m² | - |
| 1777754302 | 19.44° C | 64% | 1013.8 hPa | 0 mm | - | 848 W/m² | - |
| 1777754000 | 20° C | 61% | 1014 hPa | 0 mm | - | 659 W/m² | - |
| 1777753700 | 20° C | 61% | 1014 hPa | 0 mm | - | 826 W/m² | - |
* Rain latest hour (hover to see other rain measurements)
** Current wind speed in m/s (hover to see current wind gust speed)